Location: Vesunti
(61.5000°N, 22.8333°E)
Time: 20:15:49
(UTC+00:00)

Cosmos 2237 - Pass Details

Date: 17 February 2020
Orbit: 848 x 854 km, 70.8° (Epoch: 30 March)

Event Time Altitude Azimuth Distance (km) Brightness Sun altitude
Exits shadow 02:37:23 51° 308° (NW) 1,064 4.5 -25.4°
Maximum altitude 02:37:53 53° 327° (NNW) 1,044 4.5 -25.3°
Drops below altitude 10° 02:43:29 10° 44° (NE) 2,488 7.5 -24.7°
Sets 02:46:01 0° 50° (NE) 3,426 8.5 -24.4°
